Home   Weather   United Kingdom   Slough   Past weeks
Flag for United Kingdom

Past Weather in Slough, England, United Kingdom — Yesterday and Last 2 Weeks

Currently: 66 °F. Mild. (Weather station: London City Airport, United Kingdom). See more current weather

Past Weather in Slough — Graph

°F

Slough Temperature Yesterday

Maximum temperature yesterday: 68 °F (at 2:20 pm)
Minimum temperature yesterday: 57 °F (at 4:20 am)
Average temperature yesterday: 62 °F

High & Low Weather Summary for the Past Weeks

 TemperatureHumidityPressure
High90 °F (Jun 17, 2:50 pm)88% (Jun 18, 11:20 pm)30.30 "Hg (Jun 18, 11:20 pm)
Low52 °F (Jun 19, 1:50 am)25% (Jun 21, 3:50 pm)29.65 "Hg (Jun 24, 12:50 pm)
Average66 °F59%30.02 "Hg
* Reported Jun 11 6:20 pm — Jun 26 6:20 pm, Slough. Weather by CustomWeather, © 2022

Note: Actual official high and low records may vary slightly from our data, if they occured in-between our weather recording intervals... More about our weather records

Slough Weather History for the Previous 24 Hours

Scroll right to see more
 ConditionsComfort  
Time TempWeatherWind HumidityBarometerVisibility
6:20 pm
Sun, Jun 26
66 °FMild.14 mph43%29.92 "HgN/A
5:50 pm68 °FMild.9 mph40%29.92 "HgN/A
5:20 pm68 °FMild.15 mph38%29.92 "HgN/A
4:50 pm70 °FMild.14 mph38%29.92 "HgN/A
4:20 pm68 °FMild.15 mph40%29.92 "HgN/A
3:20 pm70 °FMild.14 mph40%29.92 "HgN/A
2:50 pm68 °FScattered clouds.15 mph43%29.92 "HgN/A
2:20 pm68 °FScattered clouds.14 mph43%29.92 "HgN/A
1:50 pm68 °FMild.14 mph40%29.89 "HgN/A
1:20 pm68 °FPassing clouds.14 mph40%29.89 "HgN/A
12:20 pm66 °FMild.14 mph46%29.92 "HgN/A
11:50 am64 °FMild.15 mph49%29.92 "HgN/A
11:20 am64 °FMild.14 mph49%29.92 "HgN/A
10:50 am64 °FBroken clouds.13 mph49%29.89 "HgN/A
10:20 am64 °FScattered clouds.14 mph52%29.89 "HgN/A
9:20 am63 °FMild.13 mph56%29.89 "HgN/A
8:50 am61 °FPassing clouds.14 mph59%29.89 "HgN/A
8:20 am63 °FPassing clouds.14 mph59%29.89 "HgN/A
7:50 am61 °FCool.13 mph63%29.89 "HgN/A
7:20 am59 °FCool.10 mph68%29.89 "HgN/A
6:50 am57 °FCool.8 mph77%29.89 "HgN/A
6:20 am57 °FCool.8 mph77%29.86 "HgN/A
5:50 am55 °FCool.6 mph82%29.86 "HgN/A
5:20 am55 °FCool.7 mph82%29.86 "HgN/A
4:20 am55 °FCool.6 mph82%29.86 "HgN/A
3:50 am55 °FCool.6 mph82%29.86 "HgN/A
3:20 am55 °FCool.5 mph82%29.86 "HgN/A
2:50 am55 °FCool.6 mph82%29.86 "HgN/A
2:20 am55 °FCool.5 mph82%29.86 "HgN/A
1:50 am55 °FCool.5 mph82%29.86 "HgN/A
12:20 am57 °FCool.7 mph82%29.83 "HgN/A
11:50 pm
Sat, Jun 25
57 °FCool.7 mph82%29.83 "HgN/A
11:20 pm59 °FCool.7 mph77%29.83 "HgN/A
10:50 pm59 °FCool.8 mph77%29.83 "HgN/A
10:20 pm59 °FCool.8 mph72%29.83 "HgN/A
9:50 pm61 °FCool.9 mph72%29.83 "HgN/A
8:50 pm61 °FLight rain. Cloudy.12 mph72%29.80 "HgN/A
8:20 pm61 °FLight rain. Cloudy.12 mph72%29.80 "HgN/A
7:50 pm63 °FScattered clouds.14 mph64%29.80 "HgN/A
7:20 pm64 °FPassing clouds.12 mph56%29.77 "HgN/A
Weather by CustomWeather, © 2022

See weather overview